JST610 YMAV-YSSY

Flight info

Callsign JST610
Flight time 1h 4m
Altitude 39000
Route AV W190 ML H129 DOSEL Y59 RIVET
Aircraft A320/M-SDE3FGHIRWY/LB1

Departure

Time 2026-05-07 06:38
Airport Melbourne Avalon International Airport (YMAV)

Arrival

Time 2026-05-07 07:42
Airport Sydney Kingsford Smith International Airport (YSSY)
Time Latitude Longitude Altitude Speed Heading
2026-05-07 06:23 -38.02726 144.47370 32 ft 0 kts
2026-05-07 06:32 -38.02735 144.47368 32 ft 4 kts
2026-05-07 06:32 -38.02762 144.47367 31 ft 4 kts 353°
2026-05-07 06:32 -38.02788 144.47374 31 ft 4 kts 335°
2026-05-07 06:32 -38.02800 144.47382 32 ft 1 kts 329°
2026-05-07 06:33 -38.02800 144.47383 32 ft 0 kts 329°
2026-05-07 06:35 -38.02799 144.47372 32 ft 3 kts 278°
2026-05-07 06:35 -38.02797 144.47327 32 ft 7 kts 275°
2026-05-07 06:35 -38.02790 144.47257 32 ft 10 kts 277°
2026-05-07 06:35 -38.02773 144.47162 31 ft 13 kts 300°
2026-05-07 06:36 -38.02736 144.47053 31 ft 10 kts 275°
2026-05-07 06:36 -38.02735 144.47042 31 ft 1 kts 275°
2026-05-07 06:36 -38.02733 144.47011 30 ft 6 kts 275°
2026-05-07 06:36 -38.02744 144.46948 30 ft 9 kts 231°
2026-05-07 06:37 -38.02790 144.46931 30 ft 0 kts 187°
2026-05-07 06:37 -38.02819 144.46926 29 ft 26 kts 187°
2026-05-07 06:37 -38.03262 144.46850 34 ft 98 kts 187°
2026-05-07 06:37 -38.04117 144.46707 37 ft 152 kts 187°
2026-05-07 06:38 -38.05226 144.46539 586 ft 159 kts 193°
2026-05-07 06:38 -38.06317 144.46358 1394 ft 155 kts 194°
2026-05-07 06:38 -38.07405 144.46257 2067 ft 166 kts 178°
2026-05-07 06:38 -38.08466 144.47138 2401 ft 209 kts 129°
2026-05-07 06:39 -38.08830 144.49049 2753 ft 241 kts 82°
2026-05-07 06:39 -38.08091 144.50954 3472 ft 246 kts 40°
2026-05-07 06:39 -38.06600 144.52076 3983 ft 259 kts 15°
2026-05-07 06:39 -38.04795 144.52729 4456 ft 281 kts
2026-05-07 06:40 -38.02829 144.53301 4924 ft 305 kts
2026-05-07 06:40 -38.00663 144.53994 5456 ft 325 kts 12°
2026-05-07 06:40 -37.98469 144.54830 6241 ft 333 kts 15°
2026-05-07 06:40 -37.96258 144.55800 7060 ft 339 kts 18°
2026-05-07 06:41 -37.94031 144.56880 7782 ft 348 kts 22°
2026-05-07 06:41 -37.91977 144.58565 8450 ft 357 kts 39°
2026-05-07 06:41 -37.90017 144.60553 9151 ft 365 kts 40°
2026-05-07 06:41 -37.88006 144.62573 9879 ft 373 kts 40°
2026-05-07 06:42 -37.85946 144.64632 10525 ft 380 kts 40°
2026-05-07 06:42 -37.83848 144.66716 11183 ft 386 kts 40°
2026-05-07 06:42 -37.81715 144.68817 11877 ft 391 kts 40°
2026-05-07 06:42 -37.79560 144.70934 12577 ft 397 kts 40°
2026-05-07 06:43 -37.77364 144.73090 13295 ft 401 kts 40°
2026-05-07 06:43 -37.75150 144.75263 14009 ft 407 kts 40°
2026-05-07 06:43 -37.72900 144.77465 14616 ft 411 kts 40°
2026-05-07 06:43 -37.70626 144.79691 15195 ft 416 kts 40°
2026-05-07 06:44 -37.68323 144.81937 15825 ft 420 kts 40°
2026-05-07 06:44 -37.66002 144.84204 16451 ft 423 kts 40°
2026-05-07 06:44 -37.63716 144.86564 17074 ft 426 kts 43°
2026-05-07 06:44 -37.61479 144.89042 17708 ft 430 kts 45°
2026-05-07 06:45 -37.59269 144.91590 18344 ft 433 kts 45°
2026-05-07 06:45 -37.57054 144.94183 18900 ft 436 kts 45°
2026-05-07 06:45 -37.54811 144.96792 19461 ft 440 kts 45°
2026-05-07 06:45 -37.52543 144.99392 20040 ft 443 kts 44°
2026-05-07 06:46 -37.50239 145.01999 20662 ft 447 kts 44°
2026-05-07 06:46 -37.47938 145.04576 21215 ft 451 kts 43°
2026-05-07 06:46 -37.45549 145.07229 21778 ft 454 kts 43°
2026-05-07 06:46 -37.43169 145.09867 22348 ft 457 kts 43°
2026-05-07 06:47 -37.40775 145.12523 22901 ft 461 kts 43°
2026-05-07 06:47 -37.38366 145.15205 23450 ft 464 kts 43°
2026-05-07 06:47 -37.35946 145.17909 23949 ft 467 kts 43°
2026-05-07 06:47 -37.33542 145.20597 24376 ft 470 kts 43°
2026-05-07 06:48 -37.31093 145.23333 24818 ft 472 kts 43°
2026-05-07 06:48 -37.28625 145.26084 25248 ft 475 kts 43°
2026-05-07 06:48 -37.26146 145.28839 25680 ft 478 kts 43°
2026-05-07 06:48 -37.23648 145.31608 26097 ft 480 kts 43°
2026-05-07 06:49 -37.21129 145.34397 26504 ft 483 kts 43°
2026-05-07 06:49 -37.18608 145.37195 26900 ft 485 kts 43°
2026-05-07 06:49 -37.16230 145.40195 27278 ft 485 kts 52°
2026-05-07 06:49 -37.14195 145.43560 27665 ft 485 kts 58°
2026-05-07 06:50 -37.12234 145.47013 28062 ft 488 kts 58°
2026-05-07 06:50 -37.10257 145.50478 28455 ft 490 kts 58°
2026-05-07 06:50 -37.08263 145.53951 28871 ft 493 kts 58°
2026-05-07 06:50 -37.06251 145.57437 29228 ft 495 kts 58°
2026-05-07 06:51 -37.04230 145.60936 29587 ft 498 kts 58°
2026-05-07 06:51 -37.02195 145.64456 29954 ft 501 kts 58°
2026-05-07 06:51 -37.00148 145.67997 30307 ft 503 kts 58°
2026-05-07 06:51 -36.98096 145.71550 30611 ft 505 kts 58°
2026-05-07 06:52 -36.96035 145.75116 30919 ft 507 kts 58°
2026-05-07 06:52 -36.93965 145.78692 31269 ft 508 kts 58°
2026-05-07 06:52 -36.91890 145.82272 31637 ft 509 kts 58°
2026-05-07 06:52 -36.89811 145.85853 32046 ft 509 kts 58°
2026-05-07 06:53 -36.87736 145.89427 32476 ft 507 kts 58°
2026-05-07 06:53 -36.85669 145.92986 32928 ft 505 kts 58°
2026-05-07 06:53 -36.83604 145.96537 33377 ft 505 kts 58°
2026-05-07 06:53 -36.81546 146.00075 33848 ft 503 kts 58°
2026-05-07 06:54 -36.79499 146.03597 34300 ft 501 kts 58°
2026-05-07 06:54 -36.77455 146.07112 34718 ft 500 kts 58°
2026-05-07 06:54 -36.75406 146.10624 35100 ft 498 kts 58°
2026-05-07 06:54 -36.73372 146.14103 35460 ft 497 kts 58°
2026-05-07 06:55 -36.71331 146.17586 35819 ft 496 kts 58°
2026-05-07 06:55 -36.69292 146.21057 36180 ft 495 kts 58°
2026-05-07 06:55 -36.67264 146.24511 36520 ft 493 kts 58°
2026-05-07 06:55 -36.65243 146.27961 36849 ft 492 kts 57°
2026-05-07 06:56 -36.63224 146.31400 37211 ft 491 kts 57°
2026-05-07 06:56 -36.61206 146.34830 37562 ft 490 kts 57°
2026-05-07 06:56 -36.59203 146.38246 37866 ft 490 kts 57°
2026-05-07 06:56 -36.57206 146.41657 38169 ft 486 kts 57°
2026-05-07 06:57 -36.55202 146.45060 38407 ft 486 kts 56°
2026-05-07 06:57 -36.53200 146.48442 38665 ft 485 kts 56°
2026-05-07 06:57 -36.51188 146.51829 38937 ft 487 kts 56°
2026-05-07 06:57 -36.49177 146.55221 39136 ft 487 kts 56°
2026-05-07 06:58 -36.45160 146.61987 39232 ft 486 kts 55°
2026-05-07 06:58 -36.41125 146.68759 39245 ft 489 kts 56°
2026-05-07 06:59 -36.37089 146.75548 39220 ft 486 kts 56°
2026-05-07 06:59 -36.33074 146.82299 39225 ft 489 kts 55°
2026-05-07 07:00 -36.29019 146.89078 39236 ft 490 kts 55°
2026-05-07 07:00 -36.24953 146.95860 39239 ft 491 kts 55°
2026-05-07 07:01 -36.20876 147.02641 39206 ft 490 kts 54°
2026-05-07 07:01 -36.16823 147.09371 39203 ft 491 kts 54°
2026-05-07 07:02 -36.12732 147.16189 39209 ft 492 kts 54°
2026-05-07 07:02 -36.08644 147.23001 39204 ft 494 kts 54°
2026-05-07 07:03 -36.04516 147.29825 39194 ft 499 kts 53°
2026-05-07 07:03 -36.00343 147.36663 39239 ft 497 kts 54°
2026-05-07 07:04 -35.96223 147.43452 39229 ft 497 kts 54°
2026-05-07 07:04 -35.92082 147.50305 39215 ft 498 kts 54°
2026-05-07 07:05 -35.87927 147.57136 39224 ft 496 kts 53°
2026-05-07 07:05 -35.83746 147.63946 39231 ft 499 kts 53°
2026-05-07 07:06 -35.79567 147.70777 39213 ft 498 kts 54°
2026-05-07 07:06 -35.75421 147.77543 39184 ft 495 kts 53°
2026-05-07 07:07 -35.71263 147.84329 39185 ft 498 kts 53°
2026-05-07 07:07 -35.67069 147.91147 39205 ft 501 kts 53°
2026-05-07 07:08 -35.62856 147.97953 39209 ft 500 kts 52°
2026-05-07 07:08 -35.58651 148.04744 39194 ft 498 kts 53°
2026-05-07 07:09 -35.54457 148.11534 39183 ft 499 kts 53°
2026-05-07 07:09 -35.50956 148.17171 39161 ft 502 kts 52°
2026-05-07 07:10 -35.46688 148.24010 39181 ft 505 kts 52°
2026-05-07 07:10 -35.42437 148.30853 39188 ft 506 kts 53°
2026-05-07 07:11 -35.38168 148.37728 39190 ft 508 kts 52°
2026-05-07 07:11 -35.33875 148.44607 39209 ft 507 kts 52°
2026-05-07 07:12 -35.29573 148.51472 39210 ft 508 kts 51°
2026-05-07 07:12 -35.25259 148.58329 39208 ft 509 kts 51°
2026-05-07 07:13 -35.20949 148.65195 39174 ft 509 kts 51°
2026-05-07 07:13 -35.16631 148.72065 39164 ft 510 kts 51°
2026-05-07 07:14 -35.12290 148.78925 39178 ft 509 kts 51°
2026-05-07 07:14 -35.07950 148.85765 39182 ft 509 kts 51°
2026-05-07 07:15 -35.03616 148.92592 39155 ft 509 kts 50°
2026-05-07 07:15 -34.99282 148.99430 38905 ft 508 kts 50°
2026-05-07 07:16 -34.97120 149.02845 38644 ft 508 kts 50°
2026-05-07 07:16 -34.94964 149.06241 38106 ft 508 kts 51°
2026-05-07 07:16 -34.92794 149.09646 37459 ft 509 kts 52°
2026-05-07 07:16 -34.90648 149.13011 36721 ft 512 kts 52°
2026-05-07 07:17 -34.88458 149.16447 35971 ft 516 kts 53°
2026-05-07 07:17 -34.86243 149.19919 35114 ft 523 kts 54°
2026-05-07 07:17 -34.83998 149.23438 34188 ft 530 kts 55°
2026-05-07 07:17 -34.81730 149.26988 33440 ft 529 kts 56°
2026-05-07 07:18 -34.79443 149.30544 32837 ft 525 kts 56°
2026-05-07 07:18 -34.77228 149.33980 32226 ft 523 kts 57°
2026-05-07 07:18 -34.74992 149.37459 31562 ft 519 kts 59°
2026-05-07 07:18 -34.73069 149.41110 30999 ft 508 kts 69°
2026-05-07 07:19 -34.71429 149.44894 30443 ft 505 kts 70°
2026-05-07 07:19 -34.69798 149.48655 29826 ft 501 kts 71°
2026-05-07 07:19 -34.68173 149.52389 29274 ft 495 kts 71°
2026-05-07 07:19 -34.66567 149.56066 28725 ft 491 kts 71°
2026-05-07 07:20 -34.64971 149.59714 28186 ft 487 kts 71°
2026-05-07 07:20 -34.63381 149.63331 27637 ft 485 kts 71°
2026-05-07 07:20 -34.61795 149.66932 27091 ft 482 kts 71°
2026-05-07 07:20 -34.60223 149.70503 26616 ft 477 kts 71°
2026-05-07 07:21 -34.58666 149.74045 26109 ft 474 kts 71°
2026-05-07 07:21 -34.57118 149.77568 25627 ft 472 kts 72°
2026-05-07 07:21 -34.55579 149.81073 25150 ft 470 kts 72°
2026-05-07 07:21 -34.54045 149.84561 24673 ft 468 kts 72°
2026-05-07 07:22 -34.52513 149.88043 24186 ft 466 kts 72°
2026-05-07 07:22 -34.50989 149.91507 23710 ft 468 kts 73°
2026-05-07 07:22 -34.49461 149.94981 23145 ft 465 kts 73°
2026-05-07 07:22 -34.47942 149.98424 22655 ft 461 kts 72°
2026-05-07 07:23 -34.46426 150.01844 22138 ft 459 kts 72°
2026-05-07 07:23 -34.44917 150.05237 21636 ft 457 kts 71°
2026-05-07 07:23 -34.43414 150.08613 21128 ft 456 kts 71°
2026-05-07 07:23 -34.41919 150.11969 20807 ft 449 kts 70°
2026-05-07 07:24 -34.40470 150.15216 20027 ft 442 kts 70°
2026-05-07 07:24 -34.39009 150.18482 19516 ft 427 kts 68°
2026-05-07 07:24 -34.37637 150.21549 18964 ft 413 kts 68°
2026-05-07 07:24 -34.36291 150.24564 18472 ft 400 kts 68°
2026-05-07 07:25 -34.33680 150.30464 17425 ft 396 kts 67°
2026-05-07 07:25 -34.32388 150.33400 16946 ft 394 kts 67°
2026-05-07 07:25 -34.31099 150.36331 16446 ft 391 kts 67°
2026-05-07 07:26 -34.29819 150.39188 15973 ft 385 kts 65°
2026-05-07 07:26 -34.28547 150.42020 15474 ft 381 kts 66°
2026-05-07 07:26 -34.27278 150.44857 15002 ft 383 kts 65°
2026-05-07 07:26 -34.26009 150.47682 14534 ft 383 kts 65°
2026-05-07 07:27 -34.24728 150.50535 14017 ft 375 kts 65°
2026-05-07 07:27 -34.23484 150.53304 13530 ft 379 kts 64°
2026-05-07 07:27 -34.22232 150.56058 13036 ft 369 kts 64°
2026-05-07 07:27 -34.21015 150.58756 12582 ft 365 kts 65°
2026-05-07 07:28 -34.19820 150.61414 12095 ft 358 kts 65°
2026-05-07 07:28 -34.18639 150.64058 11654 ft 356 kts 65°
2026-05-07 07:28 -34.17482 150.66671 11205 ft 347 kts 65°
2026-05-07 07:28 -34.16343 150.69222 10749 ft 338 kts 66°
2026-05-07 07:29 -34.15214 150.71751 10263 ft 344 kts 65°
2026-05-07 07:29 -34.14092 150.74244 10123 ft 330 kts 65°
2026-05-07 07:29 -34.12997 150.76631 9994 ft 319 kts 65°
2026-05-07 07:29 -34.11928 150.78960 9654 ft 319 kts 65°
2026-05-07 07:30 -34.10855 150.81313 9290 ft 319 kts 65°
2026-05-07 07:30 -34.09799 150.83653 8886 ft 319 kts 65°
2026-05-07 07:30 -34.08761 150.85988 8586 ft 313 kts 66°
2026-05-07 07:30 -34.07720 150.88317 8298 ft 314 kts 66°
2026-05-07 07:31 -34.06697 150.90626 7958 ft 310 kts 66°
2026-05-07 07:31 -34.05665 150.92905 7667 ft 308 kts 65°
2026-05-07 07:31 -34.04645 150.95150 7398 ft 306 kts 65°
2026-05-07 07:31 -34.03635 150.97374 7095 ft 305 kts 66°
2026-05-07 07:32 -34.02678 150.99650 6815 ft 303 kts 74°
2026-05-07 07:32 -34.02141 151.02085 6548 ft 300 kts 82°
2026-05-07 07:32 -34.01730 151.04540 6355 ft 298 kts 86°
2026-05-07 07:32 -34.01424 151.06990 6167 ft 296 kts 88°
2026-05-07 07:33 -34.01159 151.09437 5972 ft 295 kts 91°
2026-05-07 07:33 -34.01132 151.11883 5783 ft 291 kts 96°
2026-05-07 07:33 -34.01186 151.14307 5582 ft 290 kts 97°
2026-05-07 07:33 -34.01252 151.16755 5497 ft 292 kts 98°
2026-05-07 07:34 -34.01331 151.19206 5411 ft 289 kts 98°
2026-05-07 07:34 -34.01406 151.21651 5331 ft 290 kts 98°
2026-05-07 07:34 -34.01493 151.24085 5231 ft 295 kts 98°
2026-05-07 07:34 -34.01581 151.26528 5157 ft 291 kts 98°
2026-05-07 07:35 -34.01654 151.28925 5078 ft 281 kts 98°
2026-05-07 07:35 -34.01497 151.31231 5000 ft 276 kts 76°
2026-05-07 07:35 -34.00816 151.33326 4904 ft 268 kts 69°
2026-05-07 07:35 -33.99896 151.35228 4744 ft 259 kts 44°
2026-05-07 07:36 -33.98492 151.36483 4540 ft 248 kts 26°
2026-05-07 07:36 -33.96959 151.37509 4178 ft 250 kts 23°
2026-05-07 07:36 -33.95445 151.38482 3753 ft 250 kts 23°
2026-05-07 07:36 -33.93907 151.39376 3314 ft 241 kts
2026-05-07 07:37 -33.92329 151.39450 3025 ft 216 kts 336°
2026-05-07 07:37 -33.91078 151.38722 3019 ft 189 kts 309°
2026-05-07 07:37 -33.90260 151.37552 3011 ft 175 kts 288°
2026-05-07 07:37 -33.89907 151.36217 2952 ft 160 kts 269°
2026-05-07 07:38 -33.89970 151.34955 2782 ft 150 kts 251°
2026-05-07 07:38 -33.90248 151.33779 2594 ft 143 kts 250°
2026-05-07 07:38 -33.90517 151.32654 2400 ft 136 kts 251°
2026-05-07 07:38 -33.90762 151.31624 2242 ft 124 kts 251°
2026-05-07 07:39 -33.90999 151.30630 2070 ft 123 kts 251°
2026-05-07 07:39 -33.91232 151.29641 1900 ft 123 kts 251°
2026-05-07 07:39 -33.91467 151.28654 1732 ft 122 kts 251°
2026-05-07 07:39 -33.91698 151.27676 1566 ft 123 kts 251°
2026-05-07 07:40 -33.92345 151.24945 1108 ft 122 kts 251°
2026-05-07 07:40 -33.92577 151.23965 947 ft 120 kts 252°
2026-05-07 07:41 -33.92805 151.23007 780 ft 121 kts 252°
2026-05-07 07:41 -33.93035 151.22030 605 ft 121 kts 253°
2026-05-07 07:41 -33.93262 151.21069 441 ft 118 kts 255°
2026-05-07 07:41 -33.93491 151.20107 284 ft 119 kts 256°
2026-05-07 07:42 -33.93718 151.19155 117 ft 118 kts 257°
2026-05-07 07:42 -33.93928 151.18248 30 ft 98 kts 255°
2026-05-07 07:42 -33.94069 151.17652 28 ft 55 kts 254°
2026-05-07 07:42 -33.94109 151.17486 27 ft 7 kts 250°
2026-05-07 07:43 -33.94113 151.17465 27 ft 4 kts 267°
2026-05-07 07:43 -33.94075 151.17453 29 ft 10 kts
2026-05-07 07:43 -33.94000 151.17435 26 ft 13 kts 347°
2026-05-07 07:43 -33.93917 151.17454 27 ft 14 kts 64°
2026-05-07 07:44 -33.93889 151.17570 29 ft 15 kts 73°
2026-05-07 07:44 -33.93857 151.17701 30 ft 17 kts 73°
2026-05-07 07:44 -33.93763 151.17777 30 ft 18 kts 14°
2026-05-07 07:44 -33.93653 151.17809 30 ft 10 kts 14°
2026-05-07 07:45 -33.93576 151.17827 30 ft 13 kts
2026-05-07 07:45 -33.93531 151.17806 30 ft 2 kts 264°
2026-05-07 07:45 -33.93528 151.17788 30 ft 2 kts 279°
2026-05-07 07:45 -33.93525 151.17774 30 ft 1 kts 281°
2026-05-07 07:46 -33.93524 151.17766 30 ft 0 kts 280°
2026-05-07 07:46 -33.93524 151.17765 30 ft 0 kts 280°